Location: Ballingbuur
(53.0000°N, 5.7667°E)
Time: 07:07:01
(UTC+00:00)

ATLAS CENTAUR R/B - Pass Details

Date: 29 November 2020
Orbit: 477 x 668 km, 64.7° (Epoch: 12 January)

Event Time Altitude Azimuth Distance (km) Brightness Sun altitude
Exits shadow 06:08:44 13° 265° (W) 1,532 3.0 -10.8°
Maximum altitude 06:09:54 15° 245° (WSW) 1,459 3.1 -10.7°
Drops below altitude 10° 06:12:04 10° 210° (SSW) 1,745 3.8 -10.4°
Sets 06:15:04 0° 186° (S) 2,669 5.0 -10.0°
